Terug naar catalogus

STARLINK-36450

ActiefCommunicatieVLEO
NORAD 67317·PAYLOAD·🇺🇸 United States

Gelanceerd Jan 4, 2026 vanaf Cape Canaveral Space Force Station

Loading…

Volgende Passages (komende 24 uur)

TLE

VersSource: CelesTrak SupGP

Epoch: Sep 15, 2026, 03:28 UTC

1 67317C 26002N   26258.14493056  .00040588  00000+0  14701-2 0  2586
2 67317  43.0009 335.6788 0001476 266.3983 305.5487 15.27558790    19

Volg STARLINK-36450 in realtime met AllMySat

Download on the App Store